Regional Weather Roundup
Issued by NWS Sterling, VA

Home | Current Version | Previous Version | Text Only | Print | Product List | Glossary Off
Versions: 1 2 3 4 5 6 7 8 9 10 11 12 13 14 15 16 17 18 19 20 21 22 23 24 25 26 27 28 29 30 31 32 33 34 35 36 37 38 39 40 41 42 43 44 45 46 47 48 49 50

000
ASUS41 KLWX 190510
RWRLWX

REGIONAL WEATHER ROUNDUP
NATIONAL WEATHER SERVICE BALTIMORE MD/WASHINGTON DC
100 AM EDT FRI SEP 19 2014

Note: "FAIR" indicates few or no clouds below 12,000 feet
with no significant weather and/or obstructions to visibility.
 TC=TEMPERATURE CELSIUS

 * =Non NWS site. Station does not report precipitation (e.g. rain,
    snow, etc.), thunder, or fog.

DCZ001-MDZ009-015-VAZ040>042-051-053>054-190600-
WASHINGTON METRO

CITY           SKY/WX    TMP DP  RH WIND       PRES   REMARKS
WASHINGTON NAT CLEAR     66  60  81 E6        30.12S
DULLES         PTCLDY    55  53  93 CALM      30.12S
ANDREWS AFB    CLEAR     57  56  99 NE3       30.11S
QUANTICO       CLEAR     62  59  90 NW6       30.12R
COLLEGE PARK*  CLEAR     59  59 100 CALM      30.11F
LEESBURG*      CLEAR     59  55  88 N3        30.13S
MANASSAS*      CLEAR     59  57  94 CALM      30.12S
GAITHERSBURG*  CLEAR     57  55  94 CALM      30.16S

$$

MDZ006>007-011-014-190600-
BALTIMORE METRO

CITY           SKY/WX    TMP DP  RH WIND       PRES   REMARKS
BWI AIRPORT    PTCLDY    58  56  93 CALM      30.11S
MD SCIENCE CTR   N/A     63  58  83 MISG      30.12S
MARTIN STATE   CLEAR     57  57 100 CALM      30.13R
ANNAPOLIS      CLEAR     64  62  93 CALM      30.11R FOG
FORT MEADE*    CLEAR     54  52  94 CALM      30.14S

$$

MDZ012-015-019>023-190600-
MARYLAND EASTERN SHORE

CITY           SKY/WX    TMP DP  RH WIND       PRES   REMARKS
OCEAN CITY     MOCLDY    61  56  83 CALM      30.10S
SALISBURY      CLOUDY    65  59  81 CALM      30.10S
BAY BRIDGE AP*   N/A     61  59  94 CALM      30.11S
CAMBRIDGE*     PTCLDY    61  59  94 CALM      30.10R
EASTON*        CLEAR     61  61 100 CALM      30.14R

$$

MDZ017>025-190600-
SOUTHERN MARYLAND

CITY           SKY/WX    TMP DP  RH WIND       PRES   REMARKS
PATUXENT RIVER CLEAR     58  56  93 CALM      30.10R
ST INIGOES     CLEAR     57  53  86 CALM      30.09S
LEONARDTOWN*   CLEAR     57  55  94 CALM      30.12S

$$

MDZ003>005-190600-
NORTH CENTRAL MARYLAND

CITY           SKY/WX    TMP DP  RH WIND       PRES   REMARKS
FREDERICK*     CLEAR     54  54 100 CALM      30.16R FOG
HAGERSTOWN APT MOCLDY    56  47  71 CALM      30.14R
WESTMINSTER*   CLEAR     55  48  76 CALM      30.14R

$$

MDZ501>502-190600-
WESTERN MARYLAND

CITY           SKY/WX    TMP DP  RH WIND       PRES   REMARKS
OAKLAND*       MOCLDY    52  43  71 E6        30.19S
CUMBERLAND*    PTCLDY    54  46  76 CALM      30.19S

$$

VAZ025>031-190600-
SHENANDOAH VALLEY

CITY           SKY/WX    TMP DP  RH WIND       PRES   REMARKS
WINCHESTER*    CLEAR     54  46  76 CALM      30.14R
STAUNTON*      CLOUDY    62  56  81 CALM      30.14S

$$

WVZ021-048>050-054>055-190600-
EASTERN WEST VIRGINIA PANHANDLE

CITY           SKY/WX    TMP DP  RH WIND       PRES   REMARKS
MARTINSBURG    CLEAR     53  47  79 CALM      30.14S
PETERSBURG*    PTCLDY    52  51  95 CALM      30.17S FOG

$$

VAZ036>039-050-190600-
CENTRAL FOOTHILLS

CITY           SKY/WX    TMP DP  RH WIND       PRES   REMARKS
CHARLOTTESVILL MOCLDY    62  59  90 CALM      30.11S
ORANGE*        PTCLDY    61  59  94 CALM      30.13R FOG

$$

VAZ055>057-190600-
NORTH AND CENTRAL PIEDMONT

CITY           SKY/WX    TMP DP  RH WIND       PRES   REMARKS
FREDERICKSBRG* PTCLDY    61  61 100 SW3       30.11R FOG
STAFFORD*      FOG       56  56 100 CALM      30.15R VSB 1/2

$$

NCZ024-NYZ072-PAZ021-071-VAZ022-071-190600-
OTHER REGIONAL OBSERVATIONS

CITY           SKY/WX    TMP DP  RH WIND       PRES   REMARKS
NEW YORK CITY  CLEAR     63  48  58 NE8G18    30.16R
PHILADELPHIA   PTCLDY    61  53  75 NW7       30.11S
PITTSBURGH     PTCLDY    55  50  83 N3        30.18R
ROANOKE        PTCLDY    64  61  90 CALM      30.12R
RICHMOND       MOCLDY    63  58  83 CALM      30.09S
RALEIGH        MOCLDY    69  59  70 SE7       30.08S

$$

ANZ530>537-190600-
MARINE OBSERVATIONS

STATION/POSITION TIME  TEMP    WIND        PRES
                       AIR SEA DIR/SP/G
                 (UTC) (F)     (DEG/KT/KT) (MB)
THOMAS PT LIGHT  0500   67 74  320/  6/  7 1020.5R
BALT KEY BRIDGE  0500   66     280/  3/  4 1019.5S
COVE POINT       0500   68     140/  5/  6 1019.1R
LEWISETTA        0500   68 74  310/  2/  3 1018.8S
SOLOMONS ISLAND  0500      76                N/A
PINEY POINT      0500           80/  3/  3   N/A

$$



USA.gov is the U.S. government's official web portal to all federal, state and local government web resources and services.